Flag for Barbados Weather past 2 weeks in Bridgetown, Barbados

84 °F

Passing clouds.

Feels Like: 92 °F
Forecast: 83 / 88 °F
Wind: 22 mph from East

Location: Grantley Adams

Current Time: Oct 10, 2015 at 2:19:48 AM

Latest Report: Oct 10, 2015 at 1:00 AM

Visibility: 5 mi

Pressure: 29.92 "Hg

Humidity: 74%

Dew point: 75 °F

Location of BridgetownLocation

Historic Weather in Bridgetown — Graph


Bridgetown temperature yesterday

Maximum temperature yesterday: 90 °F (at 11:00 AM)
Minimum temperature yesterday: 82 °F (at 3:00 AM)
Average temperature yesterday: 85 °F

Past Weeks' High & Low Weather Summary

High91 °F (Sep 30, 1:00 PM)100% (Oct 5, 3:00 PM)30.01 "Hg (Oct 5, 3:00 PM)
Low75 °F (Sep 27, 6:00 AM)59% (Oct 5, 11:00 AM)29.77 "Hg (Oct 1, 2:00 AM)
Average84 °F78%29.89 "Hg
* Reported Sep 25 1:00 AM — Oct 10 1:00 AM, Bridgetown, Weather by CustomWeather, © 2015

Note: Actual official high and low records may vary slightly from our data, if they occured in-between our weather recording intervals... More about our weather records


Bridgetown weather history for previous 24 hours

Time TempWeatherWind HumidityBarometerVisibility
1:00 AM
Sat, Oct 10
84 °FPassing clouds.22 mph74%29.92 "Hg5 mi
12:00 AM84 °FPassing clouds.22 mph79%29.95 "Hg5 mi
11:00 PM
Fri, Oct 9
84 °FPassing clouds.24 mph79%29.95 "Hg5 mi
10:00 PM84 °FPassing clouds.22 mph79%29.95 "Hg5 mi
9:00 PM84 °FPassing clouds.22 mph79%29.95 "Hg5 mi
8:00 PM84 °FPassing clouds.23 mph79%29.92 "Hg5 mi
7:00 PM84 °FPassing clouds.24 mph79%29.92 "Hg5 mi
6:00 PM84 °FPassing clouds.21 mph79%29.89 "Hg5 mi
5:00 PM86 °FScattered clouds.23 mph75%29.89 "Hg5 mi
4:00 PM88 °FPartly sunny.23 mph70%29.86 "Hg5 mi
3:00 PM88 °FPartly sunny.24 mph75%29.86 "Hg5 mi
2:00 PM88 °FBroken clouds.24 mph70%29.89 "Hg5 mi
1:00 PM90 °FBroken clouds.24 mph71%29.92 "Hg5 mi
12:00 PM90 °FPartly sunny.24 mph71%29.95 "Hg5 mi
11:00 AM90 °FPartly sunny.24 mph71%29.98 "Hg5 mi
10:00 AM88 °FBroken clouds.24 mph70%29.98 "Hg5 mi
9:00 AM88 °FBroken clouds.24 mph70%29.98 "Hg5 mi
8:00 AM84 °FPartly sunny.23 mph70%29.98 "Hg5 mi
7:00 AM84 °FPartly sunny.21 mph79%29.95 "Hg5 mi
6:00 AM84 °FPartly sunny.21 mph79%29.92 "Hg5 mi
5:00 AM82 °FPassing clouds.18 mph84%29.92 "Hg5 mi
4:00 AM82 °FPassing clouds.13 mph79%29.92 "Hg5 mi
3:00 AM82 °FPassing clouds.18 mph84%29.89 "Hg5 mi
2:00 AM84 °FPartly cloudy.20 mph79%29.92 "Hg5 mi
Weather by CustomWeather, © 2015

See weather overviewHow to use our weather pages